Location: Castelbiague
(43.0361°N, 0.9246°E)
Time: 14:25:03
(UTC+00:00)

SPOT 3 Rocket - Pass Details

Date: 17 June 2021
Orbit: 779 x 794 km, 98.7° (Epoch: 30 July)

Event Time Altitude Azimuth Distance (km) Brightness Sun altitude
Exits shadow 21:01:10 - 180° (S) 2,467 5.7 -12.2°
Reaches altitude 10° 21:01:31 10° 180° (S) 2,332 5.6 -12.2°
Maximum altitude 21:06:35 57° 259° (W) 926 4.1 -12.8°
Drops below altitude 10° 21:11:42 10° 338° (NNW) 2,358 7.3 -13.4°
Sets 21:14:05 0° 343° (NNW) 3,294 8.2 -13.7°
